Location: The Jewett Observatory
(46.7288°N, 117.1525°W)
Time: 01:45:17
(UTC-07:00)

Amateur Radio Satellites - All Passes

Search period start: 16 April 2014 01:15
Search period end: 17 April 2014 01:15
Location: The Jewett Observatory, 46.7288°N, 117.1525°W

Satellite Date Start Highest point End Downlink Frequencies (MHz)
Time Altitude Azimuth
SO-50 16 Apr 01:30:15 01:34:49 61° 237° (WSW) 01:39:27 436.795 FM
Oscar 19 16 Apr 01:31:19 01:35:15 21° 92° (E) 01:39:10 437.125 CW, 437.150 USB
Oscar 16 16 Apr 01:38:37 01:42:57 26° 94° (E) 01:47:17 437.025 USB, Beacon 2401.1428
Oscar 10/S400 16 Apr 01:39:47 01:51:00 14° 122° (ESE) 02:08:45 145.825 - 145.975 CW/USB, Beacon 145.810 USB
PCSat 16 Apr 01:49:50 01:55:13 73° 120° (ESE) 02:00:39 145.825 MHz
AO-Echo 16 Apr 02:04:21 02:07:30 17° 90° (E) 02:10:34 ?
OPAL 16 Apr 02:04:24 02:09:18 59° 68° (ENE) 02:14:20 ?
Uribyol 2 16 Apr 02:06:52 02:11:06 25° 93° (E) 02:15:19 436.500 FM
KITSAT 1 16 Apr 02:10:49 02:15:31 17° 100° (E) 02:20:12 435.175 FM
UOSAT-12 16 Apr 02:34:47 02:39:21 45° 46° (NE) 02:43:53 437.025 FM, 437.400 FM
AO-27 16 Apr 02:44:35 02:49:38 51° 100° (E) 02:54:39 436.795 MHz FM
Sapphire 16 Apr 02:48:10 02:53:24 48° 310° (NW) 02:58:39 437.095 MHz 1200 baud AX-25 AFSK
ITAMSAT 1 16 Apr 02:56:15 03:01:25 63° 102° (ESE) 03:06:32 435.822 SSB
TMSAT-1 16 Apr 03:06:47 03:10:39 20° 91° (E) 03:14:30 436.925 FM
Oscar 19 16 Apr 03:09:52 03:14:57 56° 290° (WNW) 03:20:02 437.125 CW, 437.150 USB
Oscar 16 16 Apr 03:17:34 03:22:31 46° 292° (WNW) 03:27:27 437.025 USB, Beacon 2401.1428
PCSat 16 Apr 03:34:46 03:39:12 25° 321° (NW) 03:43:39 145.825 MHz
AO-Echo 16 Apr 03:41:57 03:46:45 61° 288° (WNW) 03:51:25 ?
OPAL 16 Apr 03:44:58 03:48:36 20° 267° (W) 03:52:17 ?
Uribyol 2 16 Apr 03:45:52 03:50:49 48° 291° (WNW) 03:55:46 436.500 FM
Gurwin Techsat 1B 16 Apr 03:55:01 04:00:21 71° 103° (ESE) 04:05:38 435.225 FM
Uosat F 16 Apr 03:57:33 04:01:19 21° 92° (E) 04:05:03 435.120 FM
AO-7 16 Apr 04:00:45 04:06:42 21° 89° (E) 04:12:36 29.400 - 29.500 MHz
KITSAT 1 16 Apr 04:01:28 04:09:33 75° 120° (ESE) 04:17:40 435.175 FM
UOSAT-12 16 Apr 04:15:18 04:19:21 29° 245° (WSW) 04:23:22 437.025 FM, 437.400 FM
JAS-1B 16 Apr 04:19:42 04:25:03 39° 97° (E) 04:30:22 435.800 - 435.900 CW/SSB
AO-27 16 Apr 04:24:42 04:28:52 25° 298° (WNW) 04:33:00 436.795 MHz FM
Sapphire 16 Apr 04:35:23 04:38:13 14° 333° (NNW) 04:41:02 437.095 MHz 1200 baud AX-25 AFSK
ITAMSAT 1 16 Apr 04:36:42 04:40:28 21° 300° (WNW) 04:44:13 435.822 SSB
STRAND 1 16 Apr 04:40:51 04:41:53 11° 52° (NE) 04:42:55 ?
TMSAT-1 16 Apr 04:45:46 04:51:00 61° 289° (WNW) 04:56:12 436.925 FM
Uosat F 16 Apr 05:35:34 05:40:27 54° 290° (WNW) 05:45:18 435.120 FM
Gurwin Techsat 1B 16 Apr 05:36:04 05:39:47 20° 301° (WNW) 05:43:29 435.225 FM
AO-7 16 Apr 05:52:12 06:00:34 89° 110° (ESE) 06:08:55 29.400 - 29.500 MHz
Hamsat 16 Apr 05:56:38 05:58:55 14° 89° (E) 06:01:12 145.90 MHz
KITSAT 1 16 Apr 05:58:17 06:05:40 37° 324° (NW) 06:13:06 435.175 FM
AO-40 16 Apr 06:09:22 11:16:34 30° 175° (S) 14:23:47 Beacon 2401.320
JAS-1B 16 Apr 06:10:39 06:15:44 33° 298° (WNW) 06:20:43 435.800 - 435.900 CW/SSB
STRAND 1 16 Apr 06:15:03 06:20:06 63° 71° (ENE) 06:25:10 ?
TMSAT-1 16 Apr 06:28:49 06:29:53 11° 308° (NW) 06:30:56 436.925 FM
MaSat-1 16 Apr 06:31:09 06:32:27 13° 51° (NE) 06:33:49 437.345 MHz
JAS-2 16 Apr 06:31:17 06:33:06 12° 87° (E) 06:34:57 435.800 - 435.900 CW/SSB, 435.910 FM
RS-15 16 Apr 07:04:49 07:15:18 47° 112° (ESE) 07:25:29 29.354 - 29.394 USB, Beacon 29.352 USB
Hamsat 16 Apr 07:31:02 07:35:20 65° 286° (WNW) 07:39:39 145.90 MHz
AO-7 16 Apr 07:45:58 07:52:25 26° 311° (NW) 07:58:52 29.400 - 29.500 MHz
STRAND 1 16 Apr 07:56:11 07:59:44 19° 269° (W) 08:03:17 ?
KITSAT 1 16 Apr 07:58:10 08:03:49 20° 352° (N) 08:09:27 435.175 FM
Sapphire 16 Apr 08:07:28 08:10:22 14° 27° (NNE) 08:13:16 437.095 MHz 1200 baud AX-25 AFSK
MaSat-1 16 Apr 08:08:21 08:11:00 37° 245° (WSW) 08:14:04 437.345 MHz
SO-67 16 Apr 08:10:06 08:13:38 75° 102° (ESE) 08:17:07 435.3500 MHz FM
JAS-2 16 Apr 08:13:41 08:18:58 85° 105° (ESE) 08:24:39 435.800 - 435.900 CW/SSB, 435.910 FM
HO-68 16 Apr 08:31:05 08:35:02 15° 86° (E) 08:38:57 435.675 MHz FM
PCSat 16 Apr 08:52:09 08:56:31 24° 38° (NE) 09:00:52 145.825 MHz
RS-15 16 Apr 09:16:15 09:27:22 63° 316° (NW) 09:38:14 29.354 - 29.394 USB, Beacon 29.352 USB
Sapphire 16 Apr 09:49:53 09:55:09 49° 50° (NE) 10:00:24 437.095 MHz 1200 baud AX-25 AFSK
KITSAT 1 16 Apr 09:56:08 10:02:33 24° 22° (NNE) 10:08:55 435.175 FM
JAS-2 16 Apr 10:00:30 10:03:30 16° 303° (WNW) 10:06:35 435.800 - 435.900 CW/SSB, 435.910 FM
FUNcube-1 16 Apr 10:12:33 10:14:16 12° 89° (E) 10:15:58 145.950 - 145.970 MHz USB
HO-68 16 Apr 10:16:39 10:23:52 78° 106° (ESE) 10:31:04 435.675 MHz FM
Oscar 11 16 Apr 10:30:58 10:35:16 56° 101° (E) 10:39:33 145.825 FM, Beacon 2401.500 USB
PCSat 16 Apr 10:35:07 10:40:33 78° 240° (WSW) 10:45:57 145.825 MHz
RS-15 16 Apr 11:32:48 11:42:22 32° 347° (NNW) 11:51:53 29.354 - 29.394 USB, Beacon 29.352 USB
Sapphire 16 Apr 11:33:42 11:38:22 30° 250° (WSW) 11:43:00 437.095 MHz 1200 baud AX-25 AFSK
FUNcube-1 16 Apr 11:46:58 11:51:10 70° 286° (WNW) 11:55:25 145.950 - 145.970 MHz USB
KITSAT 1 16 Apr 11:51:43 11:59:47 61° 48° (NE) 12:07:45 435.175 FM
HO-68 16 Apr 12:05:15 12:10:54 26° 306° (NW) 12:16:33 435.675 MHz FM
Oscar 11 16 Apr 12:08:11 12:11:03 18° 298° (WNW) 12:13:55 145.825 FM, Beacon 2401.500 USB
Saudisat 1A 16 Apr 12:11:36 12:15:59 57° 122° (ESE) 12:20:22 436.775 MHz
PCSat 16 Apr 12:21:03 12:23:03 12° 258° (WSW) 12:25:02 145.825 MHz
AO-27 16 Apr 12:28:44 12:31:58 17° 57° (ENE) 12:35:11 436.795 MHz FM
ITAMSAT 1 16 Apr 12:39:45 12:43:27 20° 59° (ENE) 12:47:09 435.822 SSB
Oscar 19 16 Apr 12:50:48 12:55:34 40° 67° (ENE) 13:00:23 437.125 CW, 437.150 USB
Oscar 16 16 Apr 12:58:16 13:03:12 50° 69° (ENE) 13:08:11 437.025 USB, Beacon 2401.1428
AO-7 16 Apr 13:16:54 13:19:32 12° 33° (NNE) 13:22:10 29.400 - 29.500 MHz
AO-Echo 16 Apr 13:19:16 13:23:56 33° 66° (ENE) 13:28:30 ?
JAS-1B 16 Apr 13:22:25 13:24:44 12° 48° (NE) 13:26:57 435.800 - 435.900 CW/SSB
Uribyol 2 16 Apr 13:27:25 13:32:23 50° 69° (ENE) 13:37:22 436.500 FM
Gurwin Techsat 1B 16 Apr 13:40:50 13:44:55 23° 61° (ENE) 13:49:00 435.225 FM
KITSAT 1 16 Apr 13:47:35 13:54:51 38° 250° (WSW) 14:02:05 435.175 FM
RS-15 16 Apr 13:48:51 13:58:42 36° 22° (NNE) 14:08:35 29.354 - 29.394 USB, Beacon 29.352 USB
Saudisat 1A 16 Apr 13:52:09 13:55:54 25° 322° (NW) 13:59:39 436.775 MHz
AO-27 16 Apr 14:05:39 14:10:51 81° 256° (WSW) 14:16:05 436.795 MHz FM
OPAL 16 Apr 14:13:37 14:15:32 12° 89° (E) 14:17:26 ?
ITAMSAT 1 16 Apr 14:17:19 14:22:28 66° 258° (WSW) 14:27:39 435.822 SSB
TMSAT-1 16 Apr 14:30:04 14:35:00 41° 67° (ENE) 14:39:57 436.925 FM
Oscar 19 16 Apr 14:30:35 14:35:01 29° 265° (W) 14:39:31 437.125 CW, 437.150 USB
Oscar 16 16 Apr 14:38:45 14:42:50 24° 267° (W) 14:46:57 437.025 USB, Beacon 2401.1428
Oscar 10/S400 16 Apr 14:40:44 15:43:51 17° 270° (W) 17:27:52 145.825 - 145.975 CW/USB, Beacon 145.810 USB
AO-Echo 16 Apr 14:57:46 15:02:38 37° 263° (W) 15:07:25 ?
AO-7 16 Apr 15:02:35 15:10:04 40° 57° (ENE) 15:17:34 29.400 - 29.500 MHz
JAS-1B 16 Apr 15:06:20 15:14:08 53° 68° (ENE) 15:20:42 435.800 - 435.900 CW/SSB
Uribyol 2 16 Apr 15:08:01 15:12:08 24° 267° (W) 15:16:16 436.500 FM
Uosat F 16 Apr 15:13:20 15:18:00 40° 67° (ENE) 15:22:40 435.120 FM
Gurwin Techsat 1B 16 Apr 15:19:16 15:24:29 59° 259° (W) 15:29:45 435.225 FM
SO-50 16 Apr 15:48:59 15:52:24 22° 113° (ESE) 15:55:50 436.795 FM
AO-27 16 Apr 15:49:40 15:51:11 11° 274° (W) 15:52:42 436.795 MHz FM
OPAL 16 Apr 15:49:56 15:55:11 83° 107° (ESE) 16:00:25 ?
RS-15 16 Apr 16:01:58 16:12:58 79° 51° (NE) 16:24:10 29.354 - 29.394 USB, Beacon 29.352 USB
TMSAT-1 16 Apr 16:10:25 16:15:02 30° 265° (W) 16:19:41 436.925 FM
ISS 16 Apr 16:44:32 16:47:34 33° 142° (SE) 16:50:38 145.800 FM
Uosat F 16 Apr 16:52:32 16:56:53 29° 265° (W) 17:01:15 435.120 FM
Hamsat 16 Apr 16:53:27 16:55:52 15° 61° (ENE) 16:58:19 145.90 MHz
AO-7 16 Apr 16:54:31 17:02:37 57° 257° (WSW) 17:10:46 29.400 - 29.500 MHz
JAS-1B 16 Apr 16:57:28 17:04:53 36° 263° (W) 17:11:16 435.800 - 435.900 CW/SSB
SO-50 16 Apr 17:28:13 17:32:37 54° 312° (NW) 17:37:05 436.795 FM
OPAL 16 Apr 17:30:07 17:33:26 17° 305° (NW) 17:36:45 ?
RS-15 16 Apr 18:15:07 18:24:17 33° 254° (WSW) 18:33:41 29.354 - 29.394 USB, Beacon 29.352 USB
ISS 16 Apr 18:20:56 18:24:14 55° 341° (NNW) 18:27:33 145.800 FM
STRAND 1 16 Apr 18:23:58 18:27:13 17° 90° (E) 18:30:26 ?
Hamsat 16 Apr 18:27:14 18:31:23 63° 259° (W) 18:35:36 145.90 MHz
UOSAT-12 16 Apr 18:28:35 18:32:54 44° 119° (ESE) 18:37:20 437.025 FM, 437.400 FM
JAS-2 16 Apr 18:29:00 18:34:38 50° 70° (ENE) 18:39:48 435.800 - 435.900 CW/SSB, 435.910 FM
SO-67 16 Apr 18:46:38 18:49:54 38° 72° (ENE) 18:53:11 435.3500 MHz FM
AO-7 16 Apr 18:56:05 18:57:17 10° 278° (W) 18:58:29 29.400 - 29.500 MHz
Saudisat 1A 16 Apr 18:56:54 19:00:16 21° 34° (NE) 19:03:36 436.775 MHz
HO-68 16 Apr 19:03:32 19:08:13 19° 49° (NE) 19:12:55 435.675 MHz FM
SO-50 16 Apr 19:11:45 19:14:13 14° 334° (NNW) 19:16:42 436.795 FM
ISS 16 Apr 19:58:18 20:01:25 34° 1° (N) 20:04:32 145.800 FM
STRAND 1 16 Apr 20:01:51 20:06:56 69° 288° (WNW) 20:11:59 ?
UOSAT-12 16 Apr 20:09:04 20:13:12 32° 319° (NW) 20:17:25 437.025 FM, 437.400 FM
JAS-2 16 Apr 20:15:09 20:19:59 26° 266° (W) 20:24:29 435.800 - 435.900 CW/SSB, 435.910 FM
SO-67 16 Apr 20:21:12 20:23:15 15° 269° (W) 20:25:20 435.3500 MHz FM
Saudisat 1A 16 Apr 20:35:58 20:40:24 78° 235° (SW) 20:44:46 436.775 MHz
HO-68 16 Apr 20:47:44 20:54:51 77° 70° (ENE) 21:02:01 435.675 MHz FM
FUNcube-1 16 Apr 21:12:09 21:14:36 15° 61° (ENE) 21:17:02 145.950 - 145.970 MHz USB
Oscar 11 16 Apr 21:28:42 21:32:58 63° 73° (ENE) 21:37:15 145.825 FM, Beacon 2401.500 USB
ISS 16 Apr 21:35:13 21:38:34 61° 21° (NNE) 21:41:54 145.800 FM
STRAND 1 16 Apr 21:43:34 21:45:12 12° 307° (NW) 21:46:50 ?
UOSAT-12 16 Apr 21:53:25 21:54:50 11° 343° (NNW) 21:56:15 437.025 FM, 437.400 FM
MaSat-1 16 Apr 22:14:44 22:17:29 37° 115° (ESE) 22:19:58 437.345 MHz
SO-50 16 Apr 22:37:15 22:39:35 14° 25° (NNE) 22:41:55 436.795 FM
HO-68 16 Apr 22:37:54 22:43:17 23° 269° (W) 22:48:43 435.675 MHz FM
FUNcube-1 16 Apr 22:46:25 22:50:36 60° 259° (W) 22:54:45 145.950 - 145.970 MHz USB
Oscar 11 16 Apr 23:07:20 23:09:36 14° 271° (W) 23:11:53 145.825 FM, Beacon 2401.500 USB
ISS 16 Apr 23:12:13 23:15:09 28° 219° (SW) 23:18:04 145.800 FM
MaSat-1 16 Apr 23:55:29 23:56:04 11° 311° (NW) 23:56:38 437.345 MHz
SO-50 17 Apr 00:16:46 00:21:16 48° 47° (NE) 00:25:48 436.795 FM
Sapphire 17 Apr 00:35:43 00:39:55 23° 108° (ESE) 00:44:07 437.095 MHz 1200 baud AX-25 AFSK
Oscar 19 17 Apr 01:01:53 01:03:19 11° 86° (E) 01:04:44 437.125 CW, 437.150 USB
Oscar 16 17 Apr 01:08:34 01:11:17 14° 88° (E) 01:13:59 437.025 USB, Beacon 2401.1428
